QPF
0.00 0.00 0.00 0.00 0.00 0.00 0.00 0.00 0.00 0.02 0.22 0.60 0.74 0.65 0.61 0.31 0.24 0.15 0.07 0.14 0.12 0.11 0.05 0.04 0.00 0.00 0.02 0.08 0.05 0.05 0.09 0.03 0.02 0.00 0.00 0.00 0.00 0.00 0.00 0.00 0.00 0.00 0.03
0.00 0.00 0.00 0.00 0.00 0.00 0.00 0.02 0.05 0.04 0.19 0.61 0.96 1.20 0.94 0.77 0.46 0.24 0.14 0.09 0.05 0.02 0.04 0.03 0.00 0.01 0.00 0.00 0.02 0.02 0.05 0.07 0.01 0.02 0.00 0.00 0.00 0.00 0.00 0.00 0.00 0.00 0.00
0.00 0.00 0.00 0.00 0.00 0.00 0.00 0.00 0.02 0.03 0.06 0.06 0.09 0.32 0.16 0.11 0.17 0.24 0.22 0.04 0.01 0.00 0.00 0.01 0.00 0.03 0.06 0.02 0.10 0.08 0.02 0.01 0.00 0.00 0.00 0.00 0.01 0.00 0.00 0.00 0.00 0.00 0.00
0.03 0.00 0.00 0.00 0.00 0.00 0.00 0.00 0.00 0.01 0.00 0.01 0.00 0.01 0.01 0.00 0.04 0.06 0.04 0.00 0.00 0.00 0.00 0.00 0.00 0.01 0.10 0.05 0.07 0.09 0.08 0.00 0.00 0.00 0.00 0.00 0.01 0.01 0.00 0.00 0.00 0.00 0.00
0.03 0.01 0.00 0.00 0.00 0.00 0.00 0.00 0.00 0.03 0.01 0.01 0.00 0.00 0.04 0.01 0.00 0.00 0.00 0.01 0.00 0.00 0.00 0.00 0.00 0.01 0.06 0.06 0.09 0.06 0.12 0.02 0.02 0.01 0.00 0.00 0.01 0.01 0.00 0.00 0.00 0.00 0.01
0.03 0.02 0.00 0.00 0.01 0.00 0.00 0.00 0.02 0.00 0.00 0.00 0.00 0.00 0.00 0.00 0.00 0.00 0.00 0.00 0.00 0.00 0.00 0.00 0.00 0.00 0.00 0.02 0.03 0.05 0.06 0.02 0.02 0.00 0.00 0.00 0.00 0.00 0.00 0.00 0.00 0.00 0.01
0.00 0.02 0.03 0.01 0.01 0.03 0.01 0.00 0.00 0.00 0.00 0.00 0.00 0.00 0.00 0.00 0.00 0.00 0.00 0.00 0.00 0.00 0.00 0.00 0.01 0.00 0.00 0.00 0.01 0.02 0.02 0.03 0.04 0.04 0.03 0.02 0.00 0.00 0.00 0.00 0.00 0.00 0.00
0.00 0.00 0.00 0.00 0.00 0.07 0.09 0.03 0.00 0.01 0.01 0.00 0.00 0.00 0.00 0.00 0.00 0.00 0.00 0.00 0.00 0.00 0.00 0.00 0.01 0.01 0.00 0.00 0.00 0.03 0.08 0.10 0.15 0.13 0.05 0.06 0.02 0.00 0.00 0.00 0.00 0.00 0.00
0.00 0.02 0.04 0.04 0.05 0.04 0.13 0.12 0.06 0.03 0.00 0.00 0.00 0.00 0.00 0.00 0.00 0.00 0.00 0.00 0.00 0.00 0.00 0.00 0.00 0.00 0.06 0.03 0.08 0.06 0.05 0.11 0.13 0.09 0.05 0.07 0.02 0.02 0.02 0.00 0.04 0.05 0.01
0.01 0.01 0.02 0.04 0.11 0.10 0.14 0.09 0.02 0.02 0.00 0.00 0.00 0.00 0.00 0.00 0.00 0.00 0.00 0.00 0.00 0.00 0.00 0.00 0.00 0.00 0.04 0.12 0.19 0.15 0.12 0.15 0.12 0.13 0.11 0.15 0.07 0.04 0.07 0.14 0.32 0.21 0.11
0.01 0.01 0.02 0.02 0.04 0.09 0.08 0.03 0.01 0.02 0.00 0.02 0.00 0.00 0.00 0.00 0.00 0.00 0.00 0.00 0.00 0.00 0.00 0.00 0.00 0.00 0.00 0.01 0.05 0.05 0.04 0.02 0.01 0.03 0.10 0.16 0.13 0.07 0.11 0.16 0.13 0.10 0.06
0.00 0.00 0.00 0.00 0.00 0.00 0.00 0.00 0.00 0.00 0.00 0.00 0.00 0.00 0.00 0.00 0.00 0.00 0.00 0.00 0.00 0.00 0.00 0.00 0.00 0.00 0.00 0.00 0.00 0.01 0.02 0.02 0.00 0.01 0.18 0.14 0.11 0.05 0.02 0.07 0.06 0.04 0.09
0.00 0.00 0.00 0.00 0.00 0.00 0.00 0.00 0.00 0.00 0.00 0.02 0.02 0.00 0.00 0.00 0.00 0.00 0.00 0.00 0.00 0.00 0.00 0.00 0.00 0.01 0.00 0.00 0.00 0.00 0.00 0.00 0.03 0.04 0.02 0.02 0.03 0.03 0.05 0.07 0.04 0.05 0.10
0.00 0.00 0.00 0.00 0.00 0.00 0.00 0.00 0.00 0.00 0.00 0.00 0.01 0.01 0.01 0.00 0.00 0.00 0.00 0.00 0.00 0.00 0.00 0.00 0.00 0.00 0.00 0.00 0.00 0.00 0.00 0.00 0.01 0.01 0.02 0.04 0.05 0.06 0.02 0.10 0.14 0.08 0.03
0.00 0.00 0.00 0.00 0.00 0.00 0.00 0.00 0.00 0.00 0.00 0.00 0.00 0.00 0.00 0.00 0.00 0.00 0.00 0.01 0.00 0.00 0.00 0.00 0.00 0.00 0.00 0.00 0.00 0.00 0.00 0.00 0.00 0.00 0.01 0.05 0.05 0.03 0.07 0.10 0.10 0.09 0.04
0.00 0.00 0.00 0.00 0.00 0.00 0.00 0.00 0.00 0.00 0.00 0.00 0.00 0.00 0.00 0.00 0.00 0.00 0.00 0.00 0.00 0.01 0.01 0.01 0.01 0.01 0.00 0.00 0.00 0.00 0.00 0.00 0.00 0.00 0.01 0.03 0.05 0.10 0.19 0.17 0.19 0.08 0.02
0.00 0.00 0.00 0.00 0.00 0.00 0.00 0.00 0.00 0.00 0.00 0.00 0.00 0.00 0.00 0.00 0.00 0.00 0.00 0.00 0.00 0.01 0.02 0.02 0.02 0.02 0.00 0.00 0.00 0.00 0.00 0.00 0.00 0.00 0.00 0.01 0.04 0.10 0.12 0.13 0.15 0.09 0.01
0.00 0.00 0.00 0.00 0.00 0.00 0.00 0.00 0.00 0.00 0.00 0.00 0.00 0.00 0.00 0.00 0.00 0.00 0.00 0.00 0.00 0.00 0.00 0.00 0.00 0.00 0.00 0.00 0.00 0.00 0.00 0.00 0.00 0.03 0.03 0.07 0.09 0.16 0.12 0.08 0.05 0.03 0.01
0.00 0.00 0.00 0.00 0.00 0.00 0.00 0.00 0.00 0.00 0.00 0.00 0.00 0.00 0.00 0.00 0.00 0.00 0.00 0.00 0.00 0.00 0.00 0.00 0.00 0.00 0.00 0.00 0.00 0.00 0.00 0.00 0.00 0.01 0.07 0.11 0.10 0.14 0.09 0.06 0.03 0.00 0.01
0.00 0.00 0.00 0.00 0.00 0.00 0.00 0.00 0.00 0.00 0.00 0.00 0.00 0.00 0.00 0.00 0.00 0.00 0.00 0.00 0.00 0.00 0.00 0.00 0.00 0.00 0.00 0.00 0.00 0.00 0.00 0.00 0.00 0.00 0.02 0.08 0.08 0.11 0.13 0.06 0.01 0.00 0.00
0.00 0.00 0.00 0.00 0.00 0.00 0.00 0.00 0.00 0.00 0.00 0.00 0.00 0.00 0.00 0.00 0.00 0.00 0.00 0.00 0.00 0.00 0.00 0.00 0.00 0.00 0.00 0.00 0.00 0.00 0.00 0.00 0.01 0.05 0.04 0.06 0.15 0.15 0.13 0.10 0.07 0.02 0.01
0.00 0.00 0.00 0.00 0.00 0.00 0.00 0.00 0.00 0.00 0.00 0.00 0.00 0.00 0.00 0.00 0.00 0.00 0.00 0.00 0.00 0.01 0.03 0.03 0.01 0.01 0.00 0.00 0.00 0.00 0.00 0.00 0.02 0.07 0.10 0.10 0.10 0.08 0.06 0.05 0.06 0.04 0.01
0.00 0.00 0.00 0.00 0.00 0.00 0.00 0.00 0.00 0.01 0.01 0.01 0.01 0.01 0.00 0.00 0.00 0.00 0.00 0.01 0.02 0.03 0.04 0.04 0.01 0.00 0.01 0.02 0.02 0.03 0.01 0.02 0.05 0.06 0.03 0.04 0.11 0.11 0.05 0.03 0.02 0.02 0.01
0.00 0.00 0.00 0.00 0.00 0.00 0.00 0.00 0.00 0.01 0.01 0.01 0.01 0.01 0.02 0.02 0.02 0.01 0.01 0.01 0.00 0.00 0.00 0.00 0.00 0.00 0.01 0.00 0.02 0.02 0.02 0.04 0.05 0.08 0.13 0.15 0.11 0.10 0.08 0.05 0.02 0.01 0.00
0.00 0.00 0.00 0.00 0.00 0.01 0.02 0.02 0.01 0.02 0.03 0.03 0.03 0.02 0.02 0.02 0.02 0.01 0.00 0.01 0.00 0.00 0.00 0.00 0.00 0.01 0.01 0.00 0.02 0.02 0.06 0.07 0.12 0.11 0.15 0.19 0.20 0.15 0.11 0.06 0.02 0.00 0.00
0.01 0.02 0.02 0.01 0.01 0.02 0.02 0.03 0.04 0.05 0.06 0.08 0.08 0.07 0.05 0.04 0.03 0.02 0.01 0.00 0.00 0.00 0.00 0.00 0.00 0.04 0.10 0.10 0.09 0.08 0.09 0.07 0.09 0.12 0.11 0.09 0.11 0.09 0.05 0.02 0.00 0.00 0.00
MSLP
1013.85 1013.93 1014.20 1014.34 1014.47 1014.37 1014.72 1014.81 1014.86 1015.06 1015.59 1016.62 1017.22 1016.74 1017.73 1017.63 1017.88 1016.64 1016.13 1016.06 1016.34 1016.17 1016.29 1016.28 1016.10 1016.15 1016.26 1016.16 1016.31 1016.50 1017.02 1017.32 1017.59 1017.01 1016.67 1016.19 1015.98 1015.93 1015.94 1016.06 1016.42 1016.67 1016.84
1013.21 1014.23 1013.94 1013.88 1013.86 1014.07 1014.29 1014.31 1014.38 1014.97 1014.99 1015.63 1016.19 1015.62 1015.39 1017.01 1017.12 1016.22 1015.97 1015.53 1015.44 1015.51 1015.43 1015.59 1015.43 1015.51 1015.57 1015.61 1015.79 1015.95 1016.13 1016.40 1016.68 1016.75 1016.38 1016.02 1015.81 1015.58 1015.48 1015.80 1016.01 1016.22 1016.38
1013.44 1013.50 1013.29 1013.44 1013.45 1013.45 1013.70 1013.88 1014.22 1014.41 1014.59 1015.03 1015.39 1015.60 1016.14 1016.14 1015.58 1015.30 1015.13 1014.73 1014.35 1014.24 1014.40 1014.54 1014.43 1014.76 1014.77 1014.90 1014.98 1015.16 1015.31 1015.53 1015.91 1016.27 1016.09 1015.67 1015.42 1015.39 1015.44 1015.53 1015.66 1015.83 1015.88
1013.09 1012.67 1012.76 1013.04 1012.85 1012.91 1013.20 1013.45 1013.73 1014.03 1014.18 1014.61 1014.99 1014.90 1015.15 1015.05 1014.65 1014.06 1013.76 1013.76 1013.66 1013.71 1013.91 1014.24 1014.03 1014.00 1013.99 1014.03 1014.19 1014.30 1014.49 1014.86 1015.26 1015.59 1015.77 1015.61 1015.43 1015.10 1015.20 1015.27 1015.40 1015.38 1015.53
1011.81 1012.23 1012.49 1012.30 1012.13 1012.44 1012.87 1013.15 1013.26 1013.72 1013.92 1014.02 1014.38 1014.36 1014.34 1014.15 1014.05 1014.17 1014.26 1013.79 1013.61 1013.77 1013.71 1013.71 1013.73 1013.37 1012.97 1012.62 1012.71 1013.31 1013.74 1013.98 1014.64 1015.11 1015.28 1015.32 1015.12 1015.09 1014.95 1014.88 1015.06 1015.08 1015.01
1012.14 1011.93 1011.88 1011.95 1012.29 1012.49 1012.56 1012.88 1013.28 1013.44 1013.91 1014.38 1014.20 1014.00 1013.96 1013.95 1013.85 1013.53 1013.40 1013.60 1013.41 1013.71 1013.57 1013.58 1013.23 1012.79 1012.96 1012.37 1012.22 1012.70 1012.92 1013.35 1013.93 1014.42 1014.62 1014.71 1014.50 1014.45 1014.41 1014.48 1014.70 1015.04 1015.04
1012.00 1012.08 1012.27 1012.26 1012.41 1012.37 1012.28 1012.34 1012.75 1013.19 1013.49 1013.87 1013.97 1013.76 1013.49 1013.30 1013.24 1013.18 1013.23 1013.38 1013.61 1013.60 1013.67 1013.64 1013.74 1013.35 1012.88 1012.44 1011.84 1011.90 1012.43 1012.75 1012.77 1013.23 1013.75 1013.80 1013.81 1013.70 1013.70 1013.85 1014.07 1014.11 1013.98
1011.84 1011.89 1012.03 1012.21 1012.22 1012.18 1012.38 1012.41 1012.63 1012.98 1013.49 1013.75 1013.67 1013.43 1013.43 1013.12 1013.02 1012.92 1013.08 1013.38 1013.50 1013.25 1013.04 1013.17 1013.28 1012.77 1012.16 1011.92 1011.49 1011.89 1012.07 1012.40 1012.49 1012.59 1012.59 1012.44 1012.65 1012.51 1012.74 1012.86 1013.01 1013.35 1013.36
1012.50 1012.50 1012.45 1012.19 1012.38 1012.34 1012.54 1012.81 1012.82 1013.02 1013.13 1013.39 1013.18 1013.21 1013.28 1012.85 1012.68 1012.54 1012.97 1013.19 1013.06 1012.84 1012.52 1012.71 1013.01 1012.58 1011.29 1010.67 1011.10 1011.68 1011.74 1011.82 1011.50 1011.87 1011.92 1011.94 1012.04 1011.94 1011.73 1012.38 1012.76 1013.40 1013.41
1013.00 1012.93 1012.84 1012.83 1013.04 1012.89 1012.81 1012.21 1012.64 1012.55 1012.56 1012.63 1012.73 1012.65 1012.62 1012.55 1012.23 1012.16 1012.50 1012.87 1012.74 1012.56 1012.10 1011.94 1011.95 1011.51 1010.08 1010.09 1010.95 1011.03 1011.22 1011.03 1011.10 1011.52 1011.46 1011.44 1010.88 1010.96 1011.37 1011.90 1011.97 1011.93 1012.84
1013.14 1013.09 1013.07 1012.98 1012.97 1013.07 1013.15 1012.84 1012.74 1012.47 1012.47 1012.39 1012.30 1012.14 1012.01 1011.88 1011.73 1011.63 1011.67 1012.24 1011.89 1011.80 1011.75 1011.47 1011.31 1011.27 1011.26 1011.06 1010.84 1010.92 1010.18 1010.33 1010.45 1010.49 1010.99 1010.97 1010.43 1009.50 1009.89 1010.62 1010.90 1011.62 1011.83
1013.30 1013.33 1013.29 1013.19 1013.12 1012.99 1013.04 1012.92 1012.77 1012.62 1012.36 1012.13 1011.97 1011.64 1011.34 1011.10 1011.03 1010.95 1010.86 1011.03 1010.95 1011.35 1010.55 1010.53 1010.72 1010.74 1010.53 1010.36 1010.38 1010.24 1010.68 1010.75 1010.75 1010.80 1010.73 1010.73 1009.68 1009.26 1008.51 1009.32 1009.78 1010.10 1010.36
1013.22 1013.15 1013.05 1012.92 1012.92 1012.85 1012.87 1012.77 1012.66 1012.44 1012.30 1011.96 1011.64 1011.18 1010.65 1010.17 1010.11 1009.97 1009.97 1009.99 1010.02 1010.69 1010.08 1009.65 1009.86 1010.19 1010.45 1010.64 1010.59 1010.44 1010.28 1010.60 1010.88 1011.03 1010.51 1010.02 1009.34 1008.59 1008.66 1009.18 1009.28 1009.48 1009.78
1013.16 1013.15 1013.07 1012.99 1012.82 1012.60 1012.39 1012.28 1012.11 1011.93 1011.75 1011.65 1011.36 1010.92 1010.34 1009.87 1009.56 1009.33 1009.20 1009.11 1009.17 1009.77 1009.51 1009.39 1009.61 1009.71 1010.02 1010.20 1010.39 1010.45 1010.13 1010.23 1010.32 1010.21 1009.99 1009.50 1009.08 1008.88 1009.01 1009.10 1009.16 1009.55 1010.13
1012.94 1012.89 1012.80 1012.67 1012.48 1012.24 1012.03 1011.76 1011.47 1011.15 1011.03 1010.87 1010.65 1010.35 1009.96 1009.41 1009.07 1008.79 1008.70 1008.70 1008.71 1008.73 1009.01 1009.20 1009.25 1009.34 1009.43 1009.67 1009.75 1009.90 1009.72 1009.79 1009.64 1009.44 1009.40 1009.03 1008.85 1008.79 1008.71 1008.79 1008.91 1009.53 1009.94
1012.59 1012.46 1012.29 1012.07 1011.79 1011.60 1011.37 1010.96 1010.59 1010.31 1010.04 1009.78 1009.59 1009.65 1009.12 1008.70 1008.30 1008.07 1007.86 1007.72 1007.68 1007.73 1008.34 1008.55 1008.48 1008.57 1008.64 1008.69 1008.86 1008.90 1008.81 1008.92 1008.84 1008.81 1008.81 1008.66 1008.50 1008.47 1008.38 1008.69 1009.01 1009.03 1009.58
1012.56 1012.33 1012.04 1011.75 1011.41 1011.10 1010.76 1010.44 1009.93 1009.27 1008.98 1008.74 1008.39 1008.13 1008.09 1007.92 1007.58 1007.47 1007.36 1007.40 1007.76 1007.96 1007.58 1007.29 1007.38 1007.50 1007.55 1007.68 1007.62 1007.87 1008.09 1007.80 1007.91 1007.94 1008.08 1008.12 1007.94 1007.95 1008.20 1008.55 1008.95 1009.05 1009.38
1011.95 1011.73 1011.44 1011.02 1010.72 1010.41 1010.08 1009.68 1009.22 1008.73 1008.15 1007.60 1007.33 1007.04 1006.81 1006.64 1006.69 1006.79 1006.78 1007.40 1007.46 1007.24 1006.98 1006.41 1006.22 1006.25 1006.27 1006.44 1006.66 1006.93 1006.91 1006.97 1007.08 1006.93 1007.12 1007.23 1007.32 1007.49 1007.88 1008.03 1008.30 1008.60 1009.07
1011.44 1011.16 1010.79 1010.41 1010.02 1009.56 1009.14 1008.66 1008.18 1007.75 1007.31 1006.79 1006.31 1005.90 1005.64 1005.53 1005.81 1006.12 1006.52 1006.31 1006.17 1005.68 1005.58 1005.59 1005.45 1005.37 1005.44 1005.58 1005.68 1005.73 1005.87 1006.04 1005.97 1006.11 1006.26 1006.41 1006.64 1006.94 1007.33 1007.49 1007.74 1008.22 1008.79
1010.95 1010.69 1010.40 1010.03 1009.53 1008.94 1008.35 1007.74 1007.11 1006.55 1006.05 1005.57 1005.24 1004.98 1004.86 1005.29 1005.72 1005.52 1005.58 1005.50 1005.28 1004.94 1004.58 1004.54 1004.44 1004.38 1004.43 1004.52 1004.66 1004.75 1004.92 1005.05 1005.03 1005.18 1005.39 1005.58 1005.78 1006.18 1006.57 1006.79 1007.18 1007.83 1008.39
1010.86 1010.42 1009.90 1009.39 1008.67 1008.01 1007.36 1006.69 1006.03 1005.42 1004.84 1004.25 1003.78 1003.76 1003.87 1004.17 1004.05 1004.11 1004.06 1004.12 1004.23 1004.10 1003.82 1003.80 1003.74 1003.67 1003.61 1003.62 1003.78 1003.94 1004.03 1003.99 1004.03 1004.19 1004.46 1004.67 1004.93 1005.34 1005.54 1006.11 1006.50 1007.22 1008.01
1010.42 1009.95 1009.37 1008.73 1007.99 1007.37 1006.74 1006.14 1005.40 1004.51 1003.65 1003.13 1002.73 1002.72 1002.80 1002.92 1002.94 1002.88 1002.79 1002.79 1002.67 1002.83 1002.63 1002.83 1002.89 1002.81 1002.76 1002.79 1002.83 1002.99 1003.06 1003.10 1003.15 1003.20 1003.41 1003.73 1004.12 1004.53 1004.89 1005.74 1006.36 1007.04 1007.76
1009.88 1009.33 1008.70 1008.03 1007.49 1006.82 1006.10 1005.43 1004.77 1004.14 1003.41 1002.79 1002.27 1001.80 1001.73 1001.66 1001.57 1001.59 1001.48 1001.46 1001.55 1001.62 1001.62 1001.84 1001.93 1001.97 1001.91 1001.81 1001.73 1001.88 1001.94 1001.84 1001.80 1001.99 1002.30 1002.86 1003.43 1003.91 1004.17 1005.25 1006.10 1007.00 1007.71
1009.53 1008.96 1008.25 1007.59 1006.91 1006.25 1005.51 1004.73 1004.04 1003.34 1002.77 1002.27 1001.97 1001.61 1001.20 1001.01 1000.63 1000.48 1000.44 1000.60 1000.77 1000.95 1001.18 1001.28 1001.40 1001.68 1001.52 1001.25 1001.06 1000.84 1000.80 1000.75 1000.83 1001.14 1001.71 1002.33 1003.32 1003.95 1004.38 1005.32 1006.07 1006.85 1007.76
1009.17 1008.58 1007.90 1007.13 1006.34 1005.51 1004.61 1003.77 1002.94 1002.22 1001.62 1001.25 1000.93 1000.77 1000.72 1000.56 1000.33 1000.40 1000.18 1000.45 1000.83 1001.24 1001.62 1001.74 1001.75 1001.69 1001.39 1001.01 1000.55 1000.42 1000.14 999.82 1000.43 1000.66 1001.66 1002.59 1002.89 1003.92 1004.75 1005.70 1006.28 1007.18 1007.98
1008.76 1008.16 1007.56 1006.78 1005.89 1004.99 1003.97 1002.66 1001.82 1001.00 1000.42 1000.44 1000.38 1000.21 1000.09 999.98 999.81 999.70 1000.08 1000.55 1001.15 1001.71 1002.12 1002.39 1002.34 1001.92 1001.62 1001.33 1001.13 1000.77 1000.43 1000.21 1000.94 1001.26 1002.14 1002.78 1003.93 1004.82 1005.33 1006.14 1006.66 1007.48 1008.25
Thickness
5814 5820 5818 5816 5813 5814 5811 5808 5805 5800 5792 5779 5771 5756 5743 5744 5751 5760 5769 5774 5771 5773 5775 5777 5779 5779 5777 5778 5776 5773 5768 5763 5755 5763 5769 5773 5772 5770 5766 5762 5757 5753 5749
5820 5812 5817 5816 5815 5812 5807 5806 5804 5795 5792 5783 5773 5771 5767 5750 5747 5752 5759 5769 5773 5773 5776 5776 5778 5778 5776 5778 5776 5774 5771 5769 5763 5760 5767 5772 5773 5774 5771 5765 5760 5756 5752
5819 5816 5818 5814 5813 5813 5809 5806 5801 5797 5791 5786 5778 5770 5759 5757 5764 5766 5764 5773 5780 5783 5781 5779 5780 5778 5777 5776 5776 5775 5774 5773 5769 5765 5765 5773 5776 5775 5770 5768 5764 5758 5756
5815 5818 5814 5811 5813 5812 5808 5805 5801 5795 5790 5785 5779 5775 5771 5766 5771 5775 5776 5781 5783 5780 5779 5776 5777 5778 5779 5779 5778 5777 5776 5772 5770 5767 5765 5768 5771 5775 5773 5768 5763 5763 5758
5817 5812 5809 5813 5815 5810 5804 5800 5801 5792 5787 5784 5780 5777 5776 5775 5777 5774 5771 5775 5777 5773 5773 5772 5773 5778 5782 5785 5784 5780 5777 5774 5770 5766 5765 5766 5768 5769 5770 5771 5766 5765 5763
5808 5809 5812 5808 5803 5801 5801 5796 5790 5788 5782 5775 5775 5775 5775 5775 5774 5774 5776 5774 5776 5770 5770 5769 5773 5778 5775 5779 5784 5780 5780 5774 5770 5767 5767 5765 5768 5769 5772 5770 5767 5761 5755
5804 5802 5800 5799 5796 5794 5795 5793 5786 5781 5779 5775 5772 5772 5772 5774 5774 5774 5772 5770 5766 5765 5764 5763 5760 5765 5769 5774 5780 5778 5779 5778 5780 5773 5767 5768 5768 5771 5773 5769 5766 5764 5763
5799 5798 5795 5791 5788 5787 5783 5782 5780 5777 5772 5768 5769 5769 5768 5769 5770 5770 5768 5765 5762 5762 5762 5760 5757 5761 5766 5771 5777 5774 5776 5775 5776 5776 5776 5777 5776 5779 5777 5775 5771 5768 5767
5785 5783 5782 5784 5778 5777 5771 5769 5770 5768 5767 5764 5764 5763 5762 5765 5766 5767 5762 5758 5758 5759 5760 5757 5753 5756 5765 5774 5775 5771 5770 5772 5778 5778 5778 5777 5777 5779 5780 5774 5768 5760 5758
5772 5771 5771 5769 5765 5764 5763 5766 5763 5762 5761 5761 5759 5759 5759 5760 5762 5761 5758 5754 5754 5755 5757 5758 5757 5759 5770 5772 5768 5766 5764 5767 5771 5773 5777 5777 5781 5782 5779 5776 5769 5757 5754
5763 5762 5760 5758 5757 5755 5751 5754 5753 5753 5752 5751 5752 5753 5755 5757 5758 5758 5756 5752 5754 5754 5752 5755 5757 5757 5755 5756 5763 5764 5767 5769 5771 5772 5770 5772 5777 5787 5787 5777 5770 5762 5758
5749 5746 5746 5746 5746 5745 5743 5742 5742 5741 5743 5745 5745 5748 5751 5754 5753 5754 5753 5751 5755 5750 5757 5755 5753 5753 5755 5758 5757 5760 5757 5760 5760 5761 5760 5764 5775 5778 5786 5781 5774 5771 5768
5741 5738 5737 5735 5734 5734 5733 5733 5731 5732 5730 5733 5736 5740 5745 5750 5752 5752 5751 5750 5750 5747 5754 5757 5753 5749 5746 5745 5746 5748 5750 5751 5750 5751 5757 5761 5768 5777 5778 5773 5771 5769 5765
5731 5729 5727 5724 5723 5722 5722 5722 5722 5721 5721 5720 5723 5727 5733 5739 5742 5745 5746 5747 5746 5742 5746 5747 5744 5744 5742 5740 5737 5739 5744 5746 5747 5749 5751 5757 5763 5766 5763 5761 5759 5756 5751
5722 5720 5719 5717 5716 5716 5715 5714 5713 5715 5715 5715 5716 5717 5719 5725 5731 5734 5734 5736 5736 5737 5736 5736 5736 5736 5735 5733 5732 5732 5735 5737 5739 5743 5746 5751 5753 5754 5756 5752 5751 5745 5741
5712 5711 5709 5709 5708 5707 5706 5710 5711 5710 5710 5709 5708 5708 5715 5718 5721 5722 5724 5725 5725 5726 5724 5725 5726 5727 5728 5728 5727 5727 5730 5731 5732 5734 5737 5741 5744 5745 5745 5741 5739 5737 5731
5698 5698 5698 5696 5697 5697 5697 5697 5700 5706 5705 5704 5705 5704 5702 5705 5705 5707 5708 5708 5705 5706 5713 5717 5718 5720 5722 5724 5725 5723 5722 5726 5728 5729 5730 5731 5736 5735 5732 5729 5726 5724 5724
5690 5688 5688 5689 5687 5687 5686 5687 5688 5689 5692 5697 5696 5695 5697 5694 5691 5689 5690 5689 5693 5693 5697 5705 5708 5710 5715 5717 5718 5718 5720 5721 5722 5727 5727 5728 5727 5725 5722 5723 5722 5720 5717
5679 5679 5679 5679 5678 5677 5678 5678 5679 5679 5680 5682 5686 5687 5686 5682 5679 5677 5675 5685 5687 5692 5693 5693 5697 5702 5703 5706 5710 5713 5715 5716 5719 5721 5721 5721 5721 5719 5716 5717 5717 5713 5709
5671 5669 5666 5665 5665 5664 5665 5665 5667 5668 5669 5672 5673 5674 5676 5669 5671 5673 5669 5672 5677 5682 5686 5687 5690 5694 5696 5697 5700 5704 5706 5710 5713 5716 5716 5716 5716 5715 5713 5714 5714 5708 5703
5656 5655 5655 5653 5652 5652 5652 5653 5653 5655 5657 5660 5665 5668 5665 5663 5668 5668 5669 5666 5666 5669 5673 5675 5679 5682 5687 5689 5690 5693 5698 5703 5707 5710 5710 5711 5711 5710 5711 5709 5708 5704 5696
5642 5641 5640 5638 5636 5634 5632 5632 5634 5638 5643 5646 5652 5654 5652 5651 5658 5661 5662 5662 5664 5663 5666 5665 5667 5672 5676 5679 5681 5683 5688 5694 5701 5703 5705 5707 5706 5706 5706 5702 5697 5692 5687
5630 5628 5625 5622 5617 5615 5614 5614 5614 5616 5620 5625 5631 5638 5643 5646 5651 5654 5658 5658 5659 5659 5660 5660 5662 5664 5669 5675 5679 5680 5684 5692 5696 5699 5702 5701 5699 5698 5699 5693 5688 5682 5678
5616 5614 5612 5610 5605 5602 5600 5599 5598 5599 5602 5607 5612 5618 5626 5633 5640 5645 5650 5651 5653 5654 5654 5654 5655 5655 5659 5665 5671 5678 5684 5690 5693 5695 5695 5693 5687 5685 5683 5679 5677 5673 5668
5607 5604 5601 5599 5597 5597 5596 5594 5592 5592 5595 5599 5603 5606 5609 5614 5622 5628 5635 5638 5642 5642 5640 5640 5641 5643 5648 5656 5664 5671 5678 5683 5687 5687 5684 5679 5680 5674 5671 5665 5665 5660 5654
5599 5597 5596 5596 5596 5593 5591 5591 5590 5591 5593 5592 5595 5598 5603 5606 5609 5616 5621 5626 5627 5626 5626 5626 5628 5633 5638 5643 5647 5654 5663 5671 5671 5672 5670 5667 5661 5658 5656 5653 5649 5645 5640